Flag for Canada Weather past 2 weeks in New Westminster, British Columbia, Canada

Now
59 °F

Cool.


Feels Like: 59 °F
Forecast: 54 / 67 °F
Wind: 3 mph from East

Location: P. Meadows Coastal Station

Current Time: Jul 24, 2014 at 11:58:59 PM

Latest Report: Jul 24, 2014 at 11:00 PM


Visibility: N/A

Pressure: 30.18 "Hg

Humidity: 79%

Dew point: 52 °F

Location of New WestminsterLocation

Historic Weather in New Westminster — Graph

°F

New Westminster temperature yesterday

Maximum temperature yesterday: 65 °F (at 3:00 PM)
Minimum temperature yesterday: 56 °F (at 6:00 AM)
Average temperature yesterday: 60 °F

Past Weeks' High & Low Weather Summary

 TemperatureHumidityPressure
High92 °F (Jul 13, 5:00 PM)97% (Jul 11, 6:00 AM)30.18 "Hg (Jul 11, 6:00 AM)
Low52 °F (Jul 22, 5:00 AM)27% (Jul 13, 5:00 PM)29.87 "Hg (Jul 10, 6:00 PM)
Average68 °F69%30.00 "Hg
* Reported Jul 9 10:00 PM — Jul 24 10:00 PM, New Westminster, Weather by CustomWeather, © 2014

Note: Actual official high and low records may vary slightly from our data, if they occured in-between our weather recording intervals... More about our weather records

Advertising

New Westminster weather history for previous 24 hours

 ConditionsComfort  
Time TempWeatherWind HumidityBarometerVisibility
10:00 PM
Jul 24
58 °FCool.3 mph78%30.18 "HgN/A
9:00 PM62 °FCool.2 mph64%30.17 "HgN/A
8:00 PM63 °FMild.2 mph66%30.16 "HgN/A
7:00 PM64 °FMild.3 mph62%30.15 "HgN/A
6:00 PM64 °FMild.3 mph73%30.15 "HgN/A
5:00 PM64 °FMild.5 mph65%30.16 "HgN/A
4:00 PM64 °FMild.1 mph77%30.16 "HgN/A
3:00 PM65 °FMild.3 mph71%30.16 "HgN/A
2:00 PM64 °FMild.3 mph66%30.15 "HgN/A
1:00 PM61 °FCool.3 mph81%30.14 "HgN/A
12:00 PM59 °FCool.5 mph84%30.13 "HgN/A
11:00 AM58 °FCool.5 mph88%30.11 "HgN/A
10:00 AM57 °FCool.3 mph93%30.10 "HgN/A
9:00 AM56 °FCool.2 mph92%30.07 "HgN/A
8:00 AM56 °FCool.3 mph94%30.06 "HgN/A
7:00 AM56 °FCool.5 mph94%30.05 "HgN/A
6:00 AM56 °FCool.3 mph95%30.03 "HgN/A
5:00 AM56 °FCool.1 mph94%30.04 "HgN/A
4:00 AM56 °FCool.1 mph94%30.03 "HgN/A
3:00 AM56 °FCool.1 mph96%30.03 "HgN/A
2:00 AM56 °FCool.No wind89%30.03 "HgN/A
1:00 AM57 °FCool.2 mph94%30.03 "HgN/A
12:00 AM57 °FCool.No wind94%30.03 "HgN/A
11:00 PM
Jul 23
57 °FCool.2 mph94%30.02 "HgN/A
Weather by CustomWeather, © 2014

See weather overviewHow to use our weather pages